owner,sensor,date,latitude,longitude,vertical_datum,sea_water_temperature,qcFlag 
FWRI,ioos:station:wmo:mtbf1:1,2012-12-01T00:07:00Z,27.6610,-82.5940,0.0,19.0,2 
FWRI,ioos:station:wmo:mtbf1:1,2012-12-01T00:37:00Z,27.6610,-82.5940,0.0,18.99,2 
FWRI,ioos:station:wmo:mtbf1:1,2012-12-01T01:07:00Z,27.6610,-82.5940,0.0,19.02,2 
FWRI,ioos:station:wmo:mtbf1:1,2012-12-01T01:37:00Z,27.6610,-82.5940,0.0,18.98,2 
FWRI,ioos:station:wmo:mtbf1:1,2012-12-01T02:07:00Z,27.6610,-82.5940,0.0,18.99,2 
FWRI,ioos:station:wmo:mtbf1:1,2012-12-01T02:37:00Z,27.6610,-82.5940,0.0,19.0,2 
FWRI,ioos:station:wmo:mtbf1:1,2012-12-01T03:07:00Z,27.6610,-82.5940,0.0,18.99,2 
FWRI,ioos:station:wmo:mtbf1:1,2012-12-01T03:37:00Z,27.6610,-82.5940,0.0,19.07,2 
FWRI,ioos:station:wmo:mtbf1:1,2012-12-01T04:07:00Z,27.6610,-82.5940,0.0,19.1,2 
FWRI,ioos:station:wmo:mtbf1:1,2012-12-01T04:37:00Z,27.6610,-82.5940,0.0,19.1,2 
FWRI,ioos:station:wmo:mtbf1:1,2012-12-01T05:07:00Z,27.6610,-82.5940,0.0,19.07,2 
FWRI,ioos:station:wmo:mtbf1:1,2012-12-01T05:37:00Z,27.6610,-82.5940,0.0,19.05,2 
FWRI,ioos:station:wmo:mtbf1:1,2012-12-01T06:07:00Z,27.6610,-82.5940,0.0,19.09,2 
FWRI,ioos:station:wmo:mtbf1:1,2012-12-01T06:37:00Z,27.6610,-82.5940,0.0,19.1,2 
FWRI,ioos:station:wmo:mtbf1:1,2012-12-01T07:07:00Z,27.6610,-82.5940,0.0,19.13,2 
FWRI,ioos:station:wmo:mtbf1:1,2012-12-01T07:37:00Z,27.6610,-82.5940,0.0,19.13,2 
FWRI,ioos:station:wmo:mtbf1:1,2012-12-01T08:07:00Z,27.6610,-82.5940,0.0,19.12,2 
FWRI,ioos:station:wmo:mtbf1:1,2012-12-01T08:37:00Z,27.6610,-82.5940,0.0,19.09,2 
FWRI,ioos:station:wmo:mtbf1:1,2012-12-01T09:07:00Z,27.6610,-82.5940,0.0,18.97,2 
FWRI,ioos:station:wmo:mtbf1:1,2012-12-01T09:37:00Z,27.6610,-82.5940,0.0,18.96,2 
FWRI,ioos:station:wmo:mtbf1:1,2012-12-01T10:07:00Z,27.6610,-82.5940,0.0,18.98,2 
FWRI,ioos:station:wmo:mtbf1:1,2012-12-01T10:37:00Z,27.6610,-82.5940,0.0,18.96,2 
FWRI,ioos:station:wmo:mtbf1:1,2012-12-01T11:07:00Z,27.6610,-82.5940,0.0,18.93,2 
FWRI,ioos:station:wmo:mtbf1:1,2012-12-01T11:37:00Z,27.6610,-82.5940,0.0,18.9,2 
FWRI,ioos:station:wmo:mtbf1:1,2012-12-01T12:07:00Z,27.6610,-82.5940,0.0,18.88,2 
FWRI,ioos:station:wmo:mtbf1:1,2012-12-01T12:37:00Z,27.6610,-82.5940,0.0,18.84,2 
FWRI,ioos:station:wmo:mtbf1:1,2012-12-01T13:07:00Z,27.6610,-82.5940,0.0,18.81,2 
FWRI,ioos:station:wmo:mtbf1:1,2012-12-01T13:37:00Z,27.6610,-82.5940,0.0,18.84,2 
FWRI,ioos:station:wmo:mtbf1:1,2012-12-01T14:07:00Z,27.6610,-82.5940,0.0,18.87,2 
FWRI,ioos:station:wmo:mtbf1:1,2012-12-01T14:37:00Z,27.6610,-82.5940,0.0,18.89,2 
FWRI,ioos:station:wmo:mtbf1:1,2012-12-01T15:07:00Z,27.6610,-82.5940,0.0,18.93,2 
FWRI,ioos:station:wmo:mtbf1:1,2012-12-01T15:37:00Z,27.6610,-82.5940,0.0,18.94,2 
FWRI,ioos:station:wmo:mtbf1:1,2012-12-01T16:07:00Z,27.6610,-82.5940,0.0,18.94,2 
FWRI,ioos:station:wmo:mtbf1:1,2012-12-01T16:37:00Z,27.6610,-82.5940,0.0,18.86,2 
FWRI,ioos:station:wmo:mtbf1:1,2012-12-01T17:07:00Z,27.6610,-82.5940,0.0,18.92,2 
FWRI,ioos:station:wmo:mtbf1:1,2012-12-01T17:37:00Z,27.6610,-82.5940,0.0,18.95,2 
FWRI,ioos:station:wmo:mtbf1:1,2012-12-01T18:07:00Z,27.6610,-82.5940,0.0,18.94,2 
FWRI,ioos:station:wmo:mtbf1:1,2012-12-01T18:37:00Z,27.6610,-82.5940,0.0,18.99,2 
FWRI,ioos:station:wmo:mtbf1:1,2012-12-01T19:07:00Z,27.6610,-82.5940,0.0,19.0,2 
FWRI,ioos:station:wmo:mtbf1:1,2012-12-01T19:37:00Z,27.6610,-82.5940,0.0,19.01,2 
FWRI,ioos:station:wmo:mtbf1:1,2012-12-01T20:07:00Z,27.6610,-82.5940,0.0,19.01,2 
FWRI,ioos:station:wmo:mtbf1:1,2012-12-01T20:37:00Z,27.6610,-82.5940,0.0,19.05,2 
FWRI,ioos:station:wmo:mtbf1:1,2012-12-01T21:07:00Z,27.6610,-82.5940,0.0,19.11,2 
FWRI,ioos:station:wmo:mtbf1:1,2012-12-01T21:37:00Z,27.6610,-82.5940,0.0,19.13,2 
FWRI,ioos:station:wmo:mtbf1:1,2012-12-01T22:07:00Z,27.6610,-82.5940,0.0,19.13,2 
FWRI,ioos:station:wmo:mtbf1:1,2012-12-01T22:37:00Z,27.6610,-82.5940,0.0,19.15,2 
FWRI,ioos:station:wmo:mtbf1:1,2012-12-01T23:07:00Z,27.6610,-82.5940,0.0,19.24,2 
FWRI,ioos:station:wmo:mtbf1:1,2012-12-01T23:37:00Z,27.6610,-82.5940,0.0,19.19,2 
FWRI,ioos:station:wmo:mtbf1:1,2012-12-02T00:07:00Z,27.6610,-82.5940,0.0,19.2,2 
FWRI,ioos:station:wmo:mtbf1:1,2012-12-02T00:37:00Z,27.6610,-82.5940,0.0,19.19,2 
FWRI,ioos:station:wmo:mtbf1:1,2012-12-02T01:07:00Z,27.6610,-82.5940,0.0,19.14,2 
FWRI,ioos:station:wmo:mtbf1:1,2012-12-02T01:37:00Z,27.6610,-82.5940,0.0,19.13,2 
FWRI,ioos:station:wmo:mtbf1:1,2012-12-02T02:07:00Z,27.6610,-82.5940,0.0,19.11,2 
FWRI,ioos:station:wmo:mtbf1:1,2012-12-02T02:37:00Z,27.6610,-82.5940,0.0,19.11,2 
FWRI,ioos:station:wmo:mtbf1:1,2012-12-02T03:07:00Z,27.6610,-82.5940,0.0,19.12,2 
FWRI,ioos:station:wmo:mtbf1:1,2012-12-02T03:37:00Z,27.6610,-82.5940,0.0,19.17,2 
FWRI,ioos:station:wmo:mtbf1:1,2012-12-02T04:07:00Z,27.6610,-82.5940,0.0,19.15,2 
FWRI,ioos:station:wmo:mtbf1:1,2012-12-02T04:37:00Z,27.6610,-82.5940,0.0,19.21,2 
FWRI,ioos:station:wmo:mtbf1:1,2012-12-02T05:07:00Z,27.6610,-82.5940,0.0,19.24,2 
FWRI,ioos:station:wmo:mtbf1:1,2012-12-02T05:37:00Z,27.6610,-82.5940,0.0,19.29,2 
FWRI,ioos:station:wmo:mtbf1:1,2012-12-02T06:07:00Z,27.6610,-82.5940,0.0,19.27,2 
FWRI,ioos:station:wmo:mtbf1:1,2012-12-02T06:37:00Z,27.6610,-82.5940,0.0,19.21,2 
FWRI,ioos:station:wmo:mtbf1:1,2012-12-02T07:07:00Z,27.6610,-82.5940,0.0,19.2,2 
FWRI,ioos:station:wmo:mtbf1:1,2012-12-02T07:37:00Z,27.6610,-82.5940,0.0,19.18,2 
FWRI,ioos:station:wmo:mtbf1:1,2012-12-02T08:07:00Z,27.6610,-82.5940,0.0,19.17,2 
FWRI,ioos:station:wmo:mtbf1:1,2012-12-02T08:37:00Z,27.6610,-82.5940,0.0,19.16,2 
FWRI,ioos:station:wmo:mtbf1:1,2012-12-02T09:07:00Z,27.6610,-82.5940,0.0,19.17,2 
FWRI,ioos:station:wmo:mtbf1:1,2012-12-02T09:37:00Z,27.6610,-82.5940,0.0,19.18,2 
FWRI,ioos:station:wmo:mtbf1:1,2012-12-02T10:07:00Z,27.6610,-82.5940,0.0,19.19,2 
FWRI,ioos:station:wmo:mtbf1:1,2012-12-02T10:37:00Z,27.6610,-82.5940,0.0,19.17,2 
FWRI,ioos:station:wmo:mtbf1:1,2012-12-02T11:07:00Z,27.6610,-82.5940,0.0,19.18,2 
FWRI,ioos:station:wmo:mtbf1:1,2012-12-02T11:37:00Z,27.6610,-82.5940,0.0,19.17,2 
FWRI,ioos:station:wmo:mtbf1:1,2012-12-02T12:07:00Z,27.6610,-82.5940,0.0,19.13,2 
FWRI,ioos:station:wmo:mtbf1:1,2012-12-02T12:37:00Z,27.6610,-82.5940,0.0,19.11,2 
FWRI,ioos:station:wmo:mtbf1:1,2012-12-02T13:07:00Z,27.6610,-82.5940,0.0,19.06,2 
FWRI,ioos:station:wmo:mtbf1:1,2012-12-02T13:37:00Z,27.6610,-82.5940,0.0,19.03,2 
FWRI,ioos:station:wmo:mtbf1:1,2012-12-02T14:07:00Z,27.6610,-82.5940,0.0,19.03,2 
FWRI,ioos:station:wmo:mtbf1:1,2012-12-02T14:37:00Z,27.6610,-82.5940,0.0,19.07,2 
FWRI,ioos:station:wmo:mtbf1:1,2012-12-02T15:07:00Z,27.6610,-82.5940,0.0,19.09,2 
FWRI,ioos:station:wmo:mtbf1:1,2012-12-02T15:37:00Z,27.6610,-82.5940,0.0,19.19,2 
FWRI,ioos:station:wmo:mtbf1:1,2012-12-02T16:07:00Z,27.6610,-82.5940,0.0,19.19,2 
FWRI,ioos:station:wmo:mtbf1:1,2012-12-02T16:37:00Z,27.6610,-82.5940,0.0,19.1,2 
FWRI,ioos:station:wmo:mtbf1:1,2012-12-02T17:07:00Z,27.6610,-82.5940,0.0,19.02,2 
FWRI,ioos:station:wmo:mtbf1:1,2012-12-02T17:37:00Z,27.6610,-82.5940,0.0,19.08,2 
FWRI,ioos:station:wmo:mtbf1:1,2012-12-02T18:07:00Z,27.6610,-82.5940,0.0,19.18,2 
FWRI,ioos:station:wmo:mtbf1:1,2012-12-02T18:37:00Z,27.6610,-82.5940,0.0,19.23,2 
FWRI,ioos:station:wmo:mtbf1:1,2012-12-02T19:07:00Z,27.6610,-82.5940,0.0,19.2,2 
FWRI,ioos:station:wmo:mtbf1:1,2012-12-02T19:37:00Z,27.6610,-82.5940,0.0,19.24,2 
FWRI,ioos:station:wmo:mtbf1:1,2012-12-02T20:07:00Z,27.6610,-82.5940,0.0,19.23,2 
FWRI,ioos:station:wmo:mtbf1:1,2012-12-02T20:37:00Z,27.6610,-82.5940,0.0,19.27,2 
FWRI,ioos:station:wmo:mtbf1:1,2012-12-02T21:07:00Z,27.6610,-82.5940,0.0,19.25,2 
FWRI,ioos:station:wmo:mtbf1:1,2012-12-02T21:37:00Z,27.6610,-82.5940,0.0,19.29,2 
FWRI,ioos:station:wmo:mtbf1:1,2012-12-02T22:07:00Z,27.6610,-82.5940,0.0,19.32,2 
FWRI,ioos:station:wmo:mtbf1:1,2012-12-02T22:37:00Z,27.6610,-82.5940,0.0,19.32,2 
FWRI,ioos:station:wmo:mtbf1:1,2012-12-02T23:07:00Z,27.6610,-82.5940,0.0,19.33,2 
FWRI,ioos:station:wmo:mtbf1:1,2012-12-02T23:37:00Z,27.6610,-82.5940,0.0,19.34,2 
FWRI,ioos:station:wmo:mtbf1:1,2012-12-03T00:07:00Z,27.6610,-82.5940,0.0,19.34,2 
FWRI,ioos:station:wmo:mtbf1:1,2012-12-03T00:37:00Z,27.6610,-82.5940,0.0,19.34,2 
FWRI,ioos:station:wmo:mtbf1:1,2012-12-03T01:07:00Z,27.6610,-82.5940,0.0,19.33,2 
FWRI,ioos:station:wmo:mtbf1:1,2012-12-03T01:37:00Z,27.6610,-82.5940,0.0,19.34,2 
FWRI,ioos:station:wmo:mtbf1:1,2012-12-03T02:07:00Z,27.6610,-82.5940,0.0,19.34,2 
FWRI,ioos:station:wmo:mtbf1:1,2012-12-03T02:37:00Z,27.6610,-82.5940,0.0,19.34,2 
FWRI,ioos:station:wmo:mtbf1:1,2012-12-03T03:07:00Z,27.6610,-82.5940,0.0,19.33,2 
FWRI,ioos:station:wmo:mtbf1:1,2012-12-03T03:37:00Z,27.6610,-82.5940,0.0,19.33,2 
FWRI,ioos:station:wmo:mtbf1:1,2012-12-03T04:07:00Z,27.6610,-82.5940,0.0,19.35,2 
FWRI,ioos:station:wmo:mtbf1:1,2012-12-03T04:37:00Z,27.6610,-82.5940,0.0,19.34,2 
FWRI,ioos:station:wmo:mtbf1:1,2012-12-03T05:07:00Z,27.6610,-82.5940,0.0,19.37,2 
FWRI,ioos:station:wmo:mtbf1:1,2012-12-03T05:37:00Z,27.6610,-82.5940,0.0,19.38,2 
FWRI,ioos:station:wmo:mtbf1:1,2012-12-03T06:07:00Z,27.6610,-82.5940,0.0,19.39,2 
FWRI,ioos:station:wmo:mtbf1:1,2012-12-03T06:37:00Z,27.6610,-82.5940,0.0,19.42,2 
FWRI,ioos:station:wmo:mtbf1:1,2012-12-03T07:07:00Z,27.6610,-82.5940,0.0,19.39,2 
FWRI,ioos:station:wmo:mtbf1:1,2012-12-03T07:37:00Z,27.6610,-82.5940,0.0,19.37,2 
FWRI,ioos:station:wmo:mtbf1:1,2012-12-03T08:07:00Z,27.6610,-82.5940,0.0,19.39,2 
FWRI,ioos:station:wmo:mtbf1:1,2012-12-03T08:37:00Z,27.6610,-82.5940,0.0,19.4,2 
FWRI,ioos:station:wmo:mtbf1:1,2012-12-03T09:07:00Z,27.6610,-82.5940,0.0,19.39,2 
FWRI,ioos:station:wmo:mtbf1:1,2012-12-03T09:37:00Z,27.6610,-82.5940,0.0,19.42,2 
FWRI,ioos:station:wmo:mtbf1:1,2012-12-03T10:07:00Z,27.6610,-82.5940,0.0,19.42,2 
FWRI,ioos:station:wmo:mtbf1:1,2012-12-03T10:37:00Z,27.6610,-82.5940,0.0,19.37,2 
FWRI,ioos:station:wmo:mtbf1:1,2012-12-03T11:07:00Z,27.6610,-82.5940,0.0,19.36,2 
FWRI,ioos:station:wmo:mtbf1:1,2012-12-03T11:37:00Z,27.6610,-82.5940,0.0,19.35,2 
FWRI,ioos:station:wmo:mtbf1:1,2012-12-03T12:07:00Z,27.6610,-82.5940,0.0,19.35,2 
FWRI,ioos:station:wmo:mtbf1:1,2012-12-03T12:37:00Z,27.6610,-82.5940,0.0,19.34,2 
FWRI,ioos:station:wmo:mtbf1:1,2012-12-03T13:07:00Z,27.6610,-82.5940,0.0,19.35,2 
FWRI,ioos:station:wmo:mtbf1:1,2012-12-03T13:37:00Z,27.6610,-82.5940,0.0,19.37,2 
FWRI,ioos:station:wmo:mtbf1:1,2012-12-03T14:07:00Z,27.6610,-82.5940,0.0,19.34,2 
FWRI,ioos:station:wmo:mtbf1:1,2012-12-03T14:37:00Z,27.6610,-82.5940,0.0,19.34,2 
FWRI,ioos:station:wmo:mtbf1:1,2012-12-03T15:07:00Z,27.6610,-82.5940,0.0,19.37,2 
FWRI,ioos:station:wmo:mtbf1:1,2012-12-03T15:37:00Z,27.6610,-82.5940,0.0,19.41,2 
FWRI,ioos:station:wmo:mtbf1:1,2012-12-03T16:07:00Z,27.6610,-82.5940,0.0,19.47,2 
FWRI,ioos:station:wmo:mtbf1:1,2012-12-03T16:37:00Z,27.6610,-82.5940,0.0,19.51,2 
FWRI,ioos:station:wmo:mtbf1:1,2012-12-03T17:07:00Z,27.6610,-82.5940,0.0,19.37,2 
FWRI,ioos:station:wmo:mtbf1:1,2012-12-03T17:37:00Z,27.6610,-82.5940,0.0,19.38,2 
FWRI,ioos:station:wmo:mtbf1:1,2012-12-03T18:07:00Z,27.6610,-82.5940,0.0,19.41,2 
FWRI,ioos:station:wmo:mtbf1:1,2012-12-03T18:37:00Z,27.6610,-82.5940,0.0,19.49,2 
FWRI,ioos:station:wmo:mtbf1:1,2012-12-03T19:07:00Z,27.6610,-82.5940,0.0,19.51,2 
FWRI,ioos:station:wmo:mtbf1:1,2012-12-03T19:37:00Z,27.6610,-82.5940,0.0,19.47,2 
FWRI,ioos:station:wmo:mtbf1:1,2012-12-03T20:07:00Z,27.6610,-82.5940,0.0,19.47,2 
FWRI,ioos:station:wmo:mtbf1:1,2012-12-03T20:37:00Z,27.6610,-82.5940,0.0,19.48,2 
FWRI,ioos:station:wmo:mtbf1:1,2012-12-03T21:07:00Z,27.6610,-82.5940,0.0,19.51,2 
FWRI,ioos:station:wmo:mtbf1:1,2012-12-03T21:37:00Z,27.6610,-82.5940,0.0,19.49,2 
FWRI,ioos:station:wmo:mtbf1:1,2012-12-03T22:07:00Z,27.6610,-82.5940,0.0,19.5,2 
FWRI,ioos:station:wmo:mtbf1:1,2012-12-03T22:37:00Z,27.6610,-82.5940,0.0,19.55,2 
FWRI,ioos:station:wmo:mtbf1:1,2012-12-03T23:07:00Z,27.6610,-82.5940,0.0,19.54,2 
FWRI,ioos:station:wmo:mtbf1:1,2012-12-03T23:37:00Z,27.6610,-82.5940,0.0,19.54,2 
FWRI,ioos:station:wmo:mtbf1:1,2012-12-04T00:07:00Z,27.6610,-82.5940,0.0,19.53,2 
FWRI,ioos:station:wmo:mtbf1:1,2012-12-04T00:37:00Z,27.6610,-82.5940,0.0,19.53,2 
FWRI,ioos:station:wmo:mtbf1:1,2012-12-04T01:07:00Z,27.6610,-82.5940,0.0,19.55,2 
FWRI,ioos:station:wmo:mtbf1:1,2012-12-04T01:37:00Z,27.6610,-82.5940,0.0,19.57,2 
FWRI,ioos:station:wmo:mtbf1:1,2012-12-04T02:07:00Z,27.6610,-82.5940,0.0,19.53,2 
FWRI,ioos:station:wmo:mtbf1:1,2012-12-04T02:37:00Z,27.6610,-82.5940,0.0,19.5,2 
FWRI,ioos:station:wmo:mtbf1:1,2012-12-04T03:07:00Z,27.6610,-82.5940,0.0,19.49,2 
FWRI,ioos:station:wmo:mtbf1:1,2012-12-04T03:37:00Z,27.6610,-82.5940,0.0,19.5,2 
FWRI,ioos:station:wmo:mtbf1:1,2012-12-04T04:07:00Z,27.6610,-82.5940,0.0,19.49,2 
FWRI,ioos:station:wmo:mtbf1:1,2012-12-04T04:37:00Z,27.6610,-82.5940,0.0,19.49,2 
FWRI,ioos:station:wmo:mtbf1:1,2012-12-04T05:07:00Z,27.6610,-82.5940,0.0,19.51,2 
FWRI,ioos:station:wmo:mtbf1:1,2012-12-04T05:37:00Z,27.6610,-82.5940,0.0,19.51,2 
FWRI,ioos:station:wmo:mtbf1:1,2012-12-04T06:07:00Z,27.6610,-82.5940,0.0,19.53,2 
FWRI,ioos:station:wmo:mtbf1:1,2012-12-04T06:37:00Z,27.6610,-82.5940,0.0,19.55,2 
FWRI,ioos:station:wmo:mtbf1:1,2012-12-04T07:07:00Z,27.6610,-82.5940,0.0,19.55,2 
FWRI,ioos:station:wmo:mtbf1:1,2012-12-04T07:37:00Z,27.6610,-82.5940,0.0,19.57,2 
FWRI,ioos:station:wmo:mtbf1:1,2012-12-04T08:07:00Z,27.6610,-82.5940,0.0,19.58,2 
FWRI,ioos:station:wmo:mtbf1:1,2012-12-04T08:37:00Z,27.6610,-82.5940,0.0,19.57,2 
FWRI,ioos:station:wmo:mtbf1:1,2012-12-04T09:07:00Z,27.6610,-82.5940,0.0,19.56,2 
FWRI,ioos:station:wmo:mtbf1:1,2012-12-04T09:37:00Z,27.6610,-82.5940,0.0,19.56,2 
FWRI,ioos:station:wmo:mtbf1:1,2012-12-04T10:07:00Z,27.6610,-82.5940,0.0,19.55,2 
FWRI,ioos:station:wmo:mtbf1:1,2012-12-04T10:37:00Z,27.6610,-82.5940,0.0,19.51,2 
FWRI,ioos:station:wmo:mtbf1:1,2012-12-04T11:07:00Z,27.6610,-82.5940,0.0,19.47,2 
FWRI,ioos:station:wmo:mtbf1:1,2012-12-04T11:37:00Z,27.6610,-82.5940,0.0,19.43,2 
FWRI,ioos:station:wmo:mtbf1:1,2012-12-04T12:07:00Z,27.6610,-82.5940,0.0,19.45,2 
FWRI,ioos:station:wmo:mtbf1:1,2012-12-04T12:37:00Z,27.6610,-82.5940,0.0,19.44,2 
FWRI,ioos:station:wmo:mtbf1:1,2012-12-04T13:07:00Z,27.6610,-82.5940,0.0,19.42,2 
FWRI,ioos:station:wmo:mtbf1:1,2012-12-04T13:37:00Z,27.6610,-82.5940,0.0,19.36,2 
FWRI,ioos:station:wmo:mtbf1:1,2012-12-04T14:07:00Z,27.6610,-82.5940,0.0,19.38,2 
FWRI,ioos:station:wmo:mtbf1:1,2012-12-04T14:37:00Z,27.6610,-82.5940,0.0,19.39,2 
FWRI,ioos:station:wmo:mtbf1:1,2012-12-04T15:07:00Z,27.6610,-82.5940,0.0,19.37,2 
FWRI,ioos:station:wmo:mtbf1:1,2012-12-04T15:37:00Z,27.6610,-82.5940,0.0,19.43,2 
FWRI,ioos:station:wmo:mtbf1:1,2012-12-04T16:07:00Z,27.6610,-82.5940,0.0,19.45,2 
FWRI,ioos:station:wmo:mtbf1:1,2012-12-04T16:37:00Z,27.6610,-82.5940,0.0,19.52,2 
FWRI,ioos:station:wmo:mtbf1:1,2012-12-04T17:07:00Z,27.6610,-82.5940,0.0,19.55,2 
FWRI,ioos:station:wmo:mtbf1:1,2012-12-04T17:37:00Z,27.6610,-82.5940,0.0,19.46,2 
FWRI,ioos:station:wmo:mtbf1:1,2012-12-04T18:07:00Z,27.6610,-82.5940,0.0,19.43,2 
FWRI,ioos:station:wmo:mtbf1:1,2012-12-04T18:37:00Z,27.6610,-82.5940,0.0,19.47,2 
FWRI,ioos:station:wmo:mtbf1:1,2012-12-04T19:07:00Z,27.6610,-82.5940,0.0,19.56,2 
FWRI,ioos:station:wmo:mtbf1:1,2012-12-04T19:37:00Z,27.6610,-82.5940,0.0,19.7,2 
FWRI,ioos:station:wmo:mtbf1:1,2012-12-04T20:07:00Z,27.6610,-82.5940,0.0,19.71,2 
FWRI,ioos:station:wmo:mtbf1:1,2012-12-04T20:37:00Z,27.6610,-82.5940,0.0,19.66,2 
FWRI,ioos:station:wmo:mtbf1:1,2012-12-04T21:07:00Z,27.6610,-82.5940,0.0,19.67,2 
FWRI,ioos:station:wmo:mtbf1:1,2012-12-04T21:37:00Z,27.6610,-82.5940,0.0,19.65,2 
FWRI,ioos:station:wmo:mtbf1:1,2012-12-04T22:07:00Z,27.6610,-82.5940,0.0,19.64,2 
FWRI,ioos:station:wmo:mtbf1:1,2012-12-04T22:37:00Z,27.6610,-82.5940,0.0,19.65,2 
FWRI,ioos:station:wmo:mtbf1:1,2012-12-04T23:07:00Z,27.6610,-82.5940,0.0,19.65,2 
FWRI,ioos:station:wmo:mtbf1:1,2012-12-04T23:37:00Z,27.6610,-82.5940,0.0,19.66,2 
FWRI,ioos:station:wmo:mtbf1:1,2012-12-05T00:07:00Z,27.6610,-82.5940,0.0,19.65,2 
FWRI,ioos:station:wmo:mtbf1:1,2012-12-05T00:37:00Z,27.6610,-82.5940,0.0,19.66,2 
FWRI,ioos:station:wmo:mtbf1:1,2012-12-05T01:07:00Z,27.6610,-82.5940,0.0,19.65,2 
FWRI,ioos:station:wmo:mtbf1:1,2012-12-05T01:37:00Z,27.6610,-82.5940,0.0,19.69,2 
FWRI,ioos:station:wmo:mtbf1:1,2012-12-05T02:07:00Z,27.6610,-82.5940,0.0,19.67,2 
FWRI,ioos:station:wmo:mtbf1:1,2012-12-05T02:37:00Z,27.6610,-82.5940,0.0,19.71,2 
FWRI,ioos:station:wmo:mtbf1:1,2012-12-05T03:07:00Z,27.6610,-82.5940,0.0,19.65,2 
FWRI,ioos:station:wmo:mtbf1:1,2012-12-05T03:37:00Z,27.6610,-82.5940,0.0,19.69,2 
FWRI,ioos:station:wmo:mtbf1:1,2012-12-05T04:07:00Z,27.6610,-82.5940,0.0,19.69,2 
FWRI,ioos:station:wmo:mtbf1:1,2012-12-05T04:37:00Z,27.6610,-82.5940,0.0,19.68,2 
FWRI,ioos:station:wmo:mtbf1:1,2012-12-05T05:07:00Z,27.6610,-82.5940,0.0,19.68,2 
FWRI,ioos:station:wmo:mtbf1:1,2012-12-05T05:37:00Z,27.6610,-82.5940,0.0,19.66,2 
FWRI,ioos:station:wmo:mtbf1:1,2012-12-05T06:07:00Z,27.6610,-82.5940,0.0,19.66,2 
FWRI,ioos:station:wmo:mtbf1:1,2012-12-05T06:37:00Z,27.6610,-82.5940,0.0,19.65,2 
FWRI,ioos:station:wmo:mtbf1:1,2012-12-05T07:07:00Z,27.6610,-82.5940,0.0,19.63,2 
FWRI,ioos:station:wmo:mtbf1:1,2012-12-05T07:37:00Z,27.6610,-82.5940,0.0,19.6,2 
FWRI,ioos:station:wmo:mtbf1:1,2012-12-05T08:07:00Z,27.6610,-82.5940,0.0,19.65,2 
FWRI,ioos:station:wmo:mtbf1:1,2012-12-05T08:37:00Z,27.6610,-82.5940,0.0,19.65,2 
FWRI,ioos:station:wmo:mtbf1:1,2012-12-05T09:07:00Z,27.6610,-82.5940,0.0,19.66,2 
FWRI,ioos:station:wmo:mtbf1:1,2012-12-05T09:37:00Z,27.6610,-82.5940,0.0,19.67,2 
FWRI,ioos:station:wmo:mtbf1:1,2012-12-05T10:07:00Z,27.6610,-82.5940,0.0,19.69,2 
FWRI,ioos:station:wmo:mtbf1:1,2012-12-05T10:37:00Z,27.6610,-82.5940,0.0,19.65,2 
FWRI,ioos:station:wmo:mtbf1:1,2012-12-05T11:07:00Z,27.6610,-82.5940,0.0,19.68,2 
FWRI,ioos:station:wmo:mtbf1:1,2012-12-05T11:37:00Z,27.6610,-82.5940,0.0,19.69,2 
FWRI,ioos:station:wmo:mtbf1:1,2012-12-05T12:07:00Z,27.6610,-82.5940,0.0,19.65,2 
FWRI,ioos:station:wmo:mtbf1:1,2012-12-05T12:37:00Z,27.6610,-82.5940,0.0,19.47,2 
FWRI,ioos:station:wmo:mtbf1:1,2012-12-05T13:07:00Z,27.6610,-82.5940,0.0,19.49,2 
FWRI,ioos:station:wmo:mtbf1:1,2012-12-05T13:37:00Z,27.6610,-82.5940,0.0,19.49,2 
FWRI,ioos:station:wmo:mtbf1:1,2012-12-05T14:07:00Z,27.6610,-82.5940,0.0,19.54,2 
FWRI,ioos:station:wmo:mtbf1:1,2012-12-05T14:37:00Z,27.6610,-82.5940,0.0,19.54,2 
FWRI,ioos:station:wmo:mtbf1:1,2012-12-05T15:07:00Z,27.6610,-82.5940,0.0,19.5,2 
FWRI,ioos:station:wmo:mtbf1:1,2012-12-05T15:37:00Z,27.6610,-82.5940,0.0,19.54,2 
FWRI,ioos:station:wmo:mtbf1:1,2012-12-05T16:07:00Z,27.6610,-82.5940,0.0,19.6,2 
FWRI,ioos:station:wmo:mtbf1:1,2012-12-05T16:37:00Z,27.6610,-82.5940,0.0,19.69,2 
FWRI,ioos:station:wmo:mtbf1:1,2012-12-05T17:07:00Z,27.6610,-82.5940,0.0,19.7,2 
FWRI,ioos:station:wmo:mtbf1:1,2012-12-05T17:37:00Z,27.6610,-82.5940,0.0,19.84,2 
FWRI,ioos:station:wmo:mtbf1:1,2012-12-05T18:07:00Z,27.6610,-82.5940,0.0,19.83,2 
FWRI,ioos:station:wmo:mtbf1:1,2012-12-05T18:37:00Z,27.6610,-82.5940,0.0,19.66,2 
FWRI,ioos:station:wmo:mtbf1:1,2012-12-05T19:07:00Z,27.6610,-82.5940,0.0,19.66,2 
FWRI,ioos:station:wmo:mtbf1:1,2012-12-05T19:37:00Z,27.6610,-82.5940,0.0,19.73,2 
FWRI,ioos:station:wmo:mtbf1:1,2012-12-05T20:07:00Z,27.6610,-82.5940,0.0,19.76,2 
FWRI,ioos:station:wmo:mtbf1:1,2012-12-05T20:37:00Z,27.6610,-82.5940,0.0,19.71,2 
FWRI,ioos:station:wmo:mtbf1:1,2012-12-05T21:07:00Z,27.6610,-82.5940,0.0,19.72,2 
FWRI,ioos:station:wmo:mtbf1:1,2012-12-05T21:37:00Z,27.6610,-82.5940,0.0,19.72,2 
FWRI,ioos:station:wmo:mtbf1:1,2012-12-05T22:07:00Z,27.6610,-82.5940,0.0,19.78,2 
FWRI,ioos:station:wmo:mtbf1:1,2012-12-05T22:37:00Z,27.6610,-82.5940,0.0,19.76,2 
FWRI,ioos:station:wmo:mtbf1:1,2012-12-05T23:07:00Z,27.6610,-82.5940,0.0,19.84,2 
FWRI,ioos:station:wmo:mtbf1:1,2012-12-05T23:37:00Z,27.6610,-82.5940,0.0,19.91,2 
FWRI,ioos:station:wmo:mtbf1:1,2012-12-06T00:07:00Z,27.6610,-82.5940,0.0,19.92,2 
FWRI,ioos:station:wmo:mtbf1:1,2012-12-06T00:37:00Z,27.6610,-82.5940,0.0,19.86,2 
FWRI,ioos:station:wmo:mtbf1:1,2012-12-06T01:07:00Z,27.6610,-82.5940,0.0,19.86,2 
FWRI,ioos:station:wmo:mtbf1:1,2012-12-06T01:37:00Z,27.6610,-82.5940,0.0,19.81,2 
FWRI,ioos:station:wmo:mtbf1:1,2012-12-06T02:07:00Z,27.6610,-82.5940,0.0,19.96,2 
FWRI,ioos:station:wmo:mtbf1:1,2012-12-06T02:37:00Z,27.6610,-82.5940,0.0,19.93,2 
FWRI,ioos:station:wmo:mtbf1:1,2012-12-06T03:07:00Z,27.6610,-82.5940,0.0,19.91,2 
FWRI,ioos:station:wmo:mtbf1:1,2012-12-06T03:37:00Z,27.6610,-82.5940,0.0,19.88,2 
FWRI,ioos:station:wmo:mtbf1:1,2012-12-06T04:07:00Z,27.6610,-82.5940,0.0,19.85,2 
FWRI,ioos:station:wmo:mtbf1:1,2012-12-06T04:37:00Z,27.6610,-82.5940,0.0,19.86,2 
FWRI,ioos:station:wmo:mtbf1:1,2012-12-06T05:07:00Z,27.6610,-82.5940,0.0,19.87,2 
FWRI,ioos:station:wmo:mtbf1:1,2012-12-06T05:37:00Z,27.6610,-82.5940,0.0,19.87,2 
FWRI,ioos:station:wmo:mtbf1:1,2012-12-06T06:07:00Z,27.6610,-82.5940,0.0,19.85,2 
FWRI,ioos:station:wmo:mtbf1:1,2012-12-06T06:37:00Z,27.6610,-82.5940,0.0,19.85,2 
FWRI,ioos:station:wmo:mtbf1:1,2012-12-06T07:07:00Z,27.6610,-82.5940,0.0,19.79,2 
FWRI,ioos:station:wmo:mtbf1:1,2012-12-06T07:37:00Z,27.6610,-82.5940,0.0,19.8,2 
FWRI,ioos:station:wmo:mtbf1:1,2012-12-06T08:07:00Z,27.6610,-82.5940,0.0,19.82,2 
FWRI,ioos:station:wmo:mtbf1:1,2012-12-06T08:37:00Z,27.6610,-82.5940,0.0,19.83,2 
FWRI,ioos:station:wmo:mtbf1:1,2012-12-06T09:07:00Z,27.6610,-82.5940,0.0,19.83,2 
FWRI,ioos:station:wmo:mtbf1:1,2012-12-06T09:37:00Z,27.6610,-82.5940,0.0,19.79,2 
FWRI,ioos:station:wmo:mtbf1:1,2012-12-06T10:07:00Z,27.6610,-82.5940,0.0,19.78,2 
FWRI,ioos:station:wmo:mtbf1:1,2012-12-06T10:37:00Z,27.6610,-82.5940,0.0,19.8,2 
FWRI,ioos:station:wmo:mtbf1:1,2012-12-06T11:07:00Z,27.6610,-82.5940,0.0,19.8,2 
FWRI,ioos:station:wmo:mtbf1:1,2012-12-06T11:37:00Z,27.6610,-82.5940,0.0,19.8,2 
FWRI,ioos:station:wmo:mtbf1:1,2012-12-06T12:07:00Z,27.6610,-82.5940,0.0,19.79,2 
FWRI,ioos:station:wmo:mtbf1:1,2012-12-06T12:37:00Z,27.6610,-82.5940,0.0,19.82,2 
FWRI,ioos:station:wmo:mtbf1:1,2012-12-06T13:07:00Z,27.6610,-82.5940,0.0,19.81,2 
FWRI,ioos:station:wmo:mtbf1:1,2012-12-06T13:37:00Z,27.6610,-82.5940,0.0,19.8,2 
FWRI,ioos:station:wmo:mtbf1:1,2012-12-06T14:07:00Z,27.6610,-82.5940,0.0,19.81,2 
FWRI,ioos:station:wmo:mtbf1:1,2012-12-06T14:37:00Z,27.6610,-82.5940,0.0,19.85,2 
FWRI,ioos:station:wmo:mtbf1:1,2012-12-06T15:07:00Z,27.6610,-82.5940,0.0,19.83,2 
FWRI,ioos:station:wmo:mtbf1:1,2012-12-06T15:37:00Z,27.6610,-82.5940,0.0,19.84,2 
FWRI,ioos:station:wmo:mtbf1:1,2012-12-06T16:07:00Z,27.6610,-82.5940,0.0,19.86,2 
FWRI,ioos:station:wmo:mtbf1:1,2012-12-06T16:37:00Z,27.6610,-82.5940,0.0,19.88,2 
FWRI,ioos:station:wmo:mtbf1:1,2012-12-06T17:07:00Z,27.6610,-82.5940,0.0,19.95,2 
FWRI,ioos:station:wmo:mtbf1:1,2012-12-06T17:37:00Z,27.6610,-82.5940,0.0,20.11,2 
FWRI,ioos:station:wmo:mtbf1:1,2012-12-06T18:07:00Z,27.6610,-82.5940,0.0,20.28,2 
FWRI,ioos:station:wmo:mtbf1:1,2012-12-06T18:37:00Z,27.6610,-82.5940,0.0,20.25,2 
FWRI,ioos:station:wmo:mtbf1:1,2012-12-06T19:07:00Z,27.6610,-82.5940,0.0,20.02,2 
FWRI,ioos:station:wmo:mtbf1:1,2012-12-06T19:37:00Z,27.6610,-82.5940,0.0,19.97,2 
FWRI,ioos:station:wmo:mtbf1:1,2012-12-06T20:07:00Z,27.6610,-82.5940,0.0,19.94,2 
FWRI,ioos:station:wmo:mtbf1:1,2012-12-06T20:37:00Z,27.6610,-82.5940,0.0,20.03,2 
FWRI,ioos:station:wmo:mtbf1:1,2012-12-06T21:07:00Z,27.6610,-82.5940,0.0,20.0,2 
FWRI,ioos:station:wmo:mtbf1:1,2012-12-06T21:37:00Z,27.6610,-82.5940,0.0,19.93,2 
FWRI,ioos:station:wmo:mtbf1:1,2012-12-06T22:07:00Z,27.6610,-82.5940,0.0,19.99,2 
FWRI,ioos:station:wmo:mtbf1:1,2012-12-06T22:37:00Z,27.6610,-82.5940,0.0,19.99,2 
FWRI,ioos:station:wmo:mtbf1:1,2012-12-06T23:07:00Z,27.6610,-82.5940,0.0,20.04,2 
FWRI,ioos:station:wmo:mtbf1:1,2012-12-06T23:37:00Z,27.6610,-82.5940,0.0,20.05,2 
FWRI,ioos:station:wmo:mtbf1:1,2012-12-07T00:07:00Z,27.6610,-82.5940,0.0,20.04,2 
FWRI,ioos:station:wmo:mtbf1:1,2012-12-07T00:37:00Z,27.6610,-82.5940,0.0,20.08,2 
FWRI,ioos:station:wmo:mtbf1:1,2012-12-07T01:07:00Z,27.6610,-82.5940,0.0,20.09,2 
FWRI,ioos:station:wmo:mtbf1:1,2012-12-07T01:37:00Z,27.6610,-82.5940,0.0,20.11,2 
FWRI,ioos:station:wmo:mtbf1:1,2012-12-07T02:07:00Z,27.6610,-82.5940,0.0,20.1,2 
FWRI,ioos:station:wmo:mtbf1:1,2012-12-07T02:37:00Z,27.6610,-82.5940,0.0,20.09,2 
FWRI,ioos:station:wmo:mtbf1:1,2012-12-07T03:07:00Z,27.6610,-82.5940,0.0,20.08,2 